Location: Dalton
(34.7700°N, 84.9700°W)
Time: 05:33:42
(UTC-05:00)

Vanguard 1 - Visible Passes

Search period start: 17 January 2018 00:00
Search period end: 27 January 2018 00:00
Orbit: 649 x 3834 km, 34.3° (Epoch: 16 January)

Date Brightness Start Highest point End Pass type
(mag) Time Alt. Az. Time Alt. Az. Time Alt. Az.
17 Jan 13.6 01:33:21 17° E 01:33:21 17° E 01:36:25 10° E visible
17 Jan 12.0 03:46:03 77° ESE 03:46:03 77° ESE 04:05:27 10° E visible
17 Jan 12.6 05:58:46 28° W 06:09:51 68° SSW 06:33:06 10° SE visible
18 Jan 13.4 01:53:10 22° E 01:53:10 22° E 01:58:17 10° E visible
18 Jan 11.9 04:05:53 85° S 04:05:53 85° S 04:27:23 10° ESE visible
18 Jan 12.8 06:18:35 21° W 06:31:18 59° SSW 06:54:04 10° SE visible
19 Jan 13.2 02:13:00 28° E 02:13:00 28° E 02:20:13 10° E visible
19 Jan 11.9 04:25:43 74° WSW 04:27:21 80° SSW 04:49:09 10° ESE visible
19 Jan 13.0 06:38:26 15° W 06:52:41 51° SSW 07:14:40 10° SE visible
20 Jan 12.9 02:32:51 35° E 02:32:51 35° E 02:42:11 10° E visible
20 Jan 11.9 04:45:34 62° WSW 04:48:48 73° SSW 05:10:43 10° ESE visible
20 Jan 13.2 06:58:19 10° W 07:14:01 42° SW 07:34:52 10° SSE visible
21 Jan 12.7 02:52:44 42° E 02:52:44 42° E 03:04:09 10° E visible
21 Jan 12.1 05:05:28 50° WSW 05:10:13 64° SSW 05:32:01 10° SE visible
22 Jan 12.4 03:12:39 50° ESE 03:12:39 50° ESE 03:26:02 10° ESE visible
22 Jan 12.2 05:25:22 39° WSW 05:31:37 56° SSW 05:53:00 10° SE visible
23 Jan 12.2 03:32:35 58° SE 03:32:35 58° SE 03:47:47 10° ESE visible
23 Jan 12.5 05:45:18 30° W 05:53:00 47° SSW 06:13:35 10° SE visible
24 Jan 13.6 01:39:50 13° E 01:39:50 13° E 01:41:23 10° E visible
24 Jan 12.1 03:52:33 62° SSE 03:52:33 62° SSE 04:09:20 10° ESE visible
24 Jan 12.7 06:05:17 23° W 06:14:22 38° SSW 06:33:44 10° SSE visible
25 Jan 13.5 01:59:49 18° E 01:59:49 18° E 02:03:12 10° E visible
25 Jan 12.0 04:12:32 59° S 04:12:32 59° S 04:30:36 10° SE visible
25 Jan 13.0 06:25:16 15° W 06:35:45 30° SW 06:53:20 10° SSE visible
26 Jan 13.3 02:19:49 23° ESE 02:19:49 23° ESE 02:24:59 10° ESE visible
26 Jan 12.1 04:32:33 51° SSW 04:32:43 51° SSW 04:51:32 10° SE visible
26 Jan 13.2 06:45:40 10° W 06:57:08 23° SW 07:12:08 10° S visible
